User: anonymous   Login
Location: *
(2.5500°S, 65.9667°W)
Time: 10:00:33
(UTC+00:00)
Language:

Cosmos 1408 - Orbit

View from above orbital plane
View from above orbital plane
View from above satellite
View from above satellite

Ground track
Ground track

The orbit data is extracted from the following two-line orbital elements,

1 13552U 82092A   22017.88375214  .00004132  00000-0  13368-3 0  9991
2 13552  82.5719  59.7711 0025683 282.5841  77.2528 15.31428032  9687
Epoch (UTC): 17 January 2022 21:12:36
Eccentricity: 0.0025683
inclination: 82.5719°
perigee height: 454 km
apogee height: 489 km
right ascension of ascending node: 59.7711°
argument of perigee: 282.5841°
revolutions per day: 15.31428032
mean anomaly at epoch: 77.2528°
orbit number at epoch: 968

The dashed part of the orbit path shows where the satellite is in the earth's shadow,  

DLR